Theta_e
314 317 320 319 314 309 308 310 311 311 310 310 312 314 314 314 313 312 312 311 310 311 310 310 310 309 309 307 304 303 302 301 300 300 299 299 299 300 299 299 297 297 297 296 295 294 293 293 293 293 293 293 293 293 293 293 294 294 294 294 294 294 294 294 294 295 295 295 295 296 297 297 297 298 298 299 300 300 300 301 301 303 304 302 301 302
315 319 319 313 309 307 308 310 310 310 310 310 312 314 314 315 314 312 312 311 310 311 310 310 309 308 309 308 304 303 302 301 300 299 299 299 299 300 299 298 297 296 297 295 294 293 293 292 292 292 293 292 293 293 293 293 293 294 294 294 294 294 294 294 294 294 294 295 295 296 296 296 297 297 297 299 299 299 300 301 301 302 301 300 300 301
318 319 313 309 309 309 309 310 309 309 310 312 313 314 315 316 315 314 313 311 310 310 309 309 309 308 309 307 304 302 301 300 300 300 300 299 299 299 298 297 296 296 296 295 294 293 292 292 292 292 292 292 292 292 293 293 293 293 294 293 294 293 294 294 294 294 294 294 295 295 296 296 296 296 297 298 298 299 300 300 301 301 300 300 300 300
317 316 311 309 311 309 309 311 310 310 312 314 315 314 315 317 316 314 313 311 310 309 309 310 309 309 308 306 304 302 301 300 301 301 301 300 299 298 298 297 296 295 295 295 294 293 292 292 292 292 292 292 292 292 293 293 293 293 293 293 294 293 293 293 293 294 294 294 294 295 295 296 296 296 296 297 297 298 299 300 301 301 301 301 300 299
315 313 311 311 311 311 311 313 314 314 313 315 316 316 316 315 313 312 312 310 308 309 310 309 308 308 308 306 303 302 301 300 300 299 300 299 299 298 298 297 297 296 295 295 295 293 292 291 292 292 292 292 292 292 292 293 293 293 293 293 293 293 293 293 293 293 293 293 294 294 295 295 296 296 296 296 297 298 299 299 300 301 302 302 301 300
313 312 312 313 313 314 316 316 316 316 314 313 316 316 313 311 311 312 313 311 309 310 311 308 307 308 310 307 303 302 301 299 298 298 298 298 298 297 297 297 296 296 295 295 294 293 292 291 292 292 292 292 292 292 292 293 293 293 293 293 293 293 293 293 292 292 293 293 293 294 294 295 295 295 296 296 296 297 298 299 299 300 301 302 302 300
310 310 312 315 315 316 318 317 316 317 314 313 315 313 309 309 311 313 312 311 310 310 309 307 307 307 309 309 305 302 302 299 298 298 298 298 297 297 297 296 295 295 295 295 294 292 291 291 291 291 292 292 292 292 292 292 293 293 293 293 293 293 293 292 292 292 292 293 293 293 294 294 294 295 295 296 296 296 297 298 299 300 301 302 302 301
310 311 313 314 315 315 316 315 316 315 313 314 313 310 308 309 311 311 311 310 310 309 309 308 308 306 306 308 306 303 302 300 298 298 298 297 296 296 296 295 295 295 294 294 294 293 291 291 291 291 292 292 292 292 292 292 292 292 293 292 292 292 292 292 292 291 292 292 293 293 293 293 294 294 295 295 296 296 297 298 298 299 300 301 302 301
312 315 316 315 315 315 314 313 313 313 313 312 308 306 307 307 309 309 309 310 309 309 308 308 309 308 308 307 305 303 302 299 297 297 297 297 296 295 295 295 294 294 294 294 294 292 291 291 291 292 292 292 292 292 292 292 292 292 292 291 291 291 292 291 291 291 292 291 290 289 289 290 291 293 294 294 295 295 296 296 297 298 299 300 301 301
312 313 312 313 313 312 311 311 311 312 313 310 307 308 309 309 309 309 310 311 309 307 306 307 309 308 309 308 305 304 303 299 298 297 296 296 296 295 294 294 294 294 294 294 293 291 291 292 292 292 292 292 292 292 292 291 291 291 291 290 290 290 291 291 291 290 290 289 288 287 287 287 288 289 291 293 294 295 295 295 296 298 299 300 301 301
309 307 308 310 311 311 309 309 311 310 310 310 310 312 311 311 311 309 311 311 307 308 308 306 308 307 309 309 306 304 302 300 298 297 296 296 295 294 294 294 294 293 294 293 292 291 291 292 292 292 292 292 292 291 291 291 291 291 290 289 289 290 290 289 289 288 288 287 286 286 285 286 286 286 287 290 293 294 294 294 295 297 298 299 300 301
310 310 311 311 310 310 309 309 311 309 308 310 311 310 310 312 310 308 313 312 308 310 308 304 305 306 307 308 304 300 299 298 298 296 295 294 293 294 294 294 294 293 293 293 292 292 291 291 291 292 291 291 291 291 290 290 290 290 289 289 288 288 288 287 287 286 286 286 285 285 285 285 285 284 285 287 290 293 294 294 294 296 297 299 300 301
315 315 315 312 309 309 312 312 311 311 310 310 310 308 310 312 310 310 314 314 311 310 304 301 303 302 303 304 301 298 297 296 296 296 295 294 293 294 294 294 293 293 293 292 292 292 291 291 291 291 291 291 291 290 290 289 289 289 288 288 287 287 286 286 285 284 284 284 284 284 285 284 284 283 284 285 287 291 293 294 295 296 297 298 300 300
318 316 313 312 310 310 312 313 313 313 311 309 309 308 309 310 309 309 310 311 312 309 303 301 302 301 302 303 300 298 296 296 295 295 295 294 293 293 293 293 293 293 293 292 292 292 291 290 290 291 291 290 290 290 289 289 288 287 287 287 286 285 285 284 284 283 283 283 283 283 283 282 282 283 284 285 286 288 291 292 294 296 297 299 300 300
317 319 315 312 310 310 312 311 310 309 307 307 307 306 309 310 309 309 308 308 310 308 304 302 302 303 304 302 299 297 296 296 296 295 295 294 293 293 293 293 293 292 292 292 292 291 290 290 290 290 290 290 290 289 289 288 287 287 286 286 285 284 283 283 283 283 282 282 281 281 281 280 282 283 284 284 285 287 288 289 291 293 296 298 299 300
315 319 314 308 306 307 308 307 305 306 308 307 306 307 309 308 307 308 306 305 306 304 302 302 304 305 303 299 298 297 296 296 296 295 294 294 293 294 293 293 292 292 291 292 291 291 290 290 290 290 290 290 289 289 288 287 286 286 285 284 284 283 283 282 282 281 281 280 280 280 280 280 281 282 282 282 283 284 285 287 289 292 295 298 299 300
317 318 312 306 305 303 302 303 303 307 309 305 305 308 306 302 303 304 305 304 304 303 301 302 304 303 302 300 298 297 296 296 295 294 293 293 294 293 292 292 292 291 291 291 291 290 290 289 290 290 290 289 289 288 287 286 286 285 284 283 283 283 282 281 281 280 280 279 279 279 279 279 279 279 280 280 281 282 282 284 285 288 291 295 298 299
316 315 311 307 307 303 299 301 302 303 304 304 305 306 302 301 300 301 303 303 302 302 302 303 304 302 303 303 298 296 297 296 295 294 293 293 293 292 292 292 291 291 291 291 291 290 289 289 289 289 289 289 288 288 287 286 285 284 284 283 283 282 282 281 280 280 279 279 279 279 278 278 278 278 279 279 280 281 281 282 283 284 286 290 295 298
315 316 312 307 306 303 300 303 304 302 301 303 304 302 302 304 303 302 303 303 302 302 303 304 304 302 303 303 299 297 297 296 294 293 293 293 292 292 292 291 291 291 291 291 290 290 289 289 289 289 289 288 288 287 286 285 284 284 283 283 282 282 281 280 279 279 278 278 277 277 277 277 277 278 278 279 279 280 281 282 283 284 284 286 290 295
313 314 313 306 303 302 301 302 305 303 300 301 301 300 301 302 302 303 303 302 303 302 302 303 302 303 303 302 300 298 296 295 294 293 293 293 292 292 291 291 291 291 291 290 290 290 289 289 289 289 288 288 287 286 286 285 284 283 283 282 281 281 280 279 279 278 278 277 276 276 276 276 276 277 278 278 278 279 280 281 283 284 285 286 286 288
311 310 310 305 301 302 303 303 304 305 302 300 298 298 299 299 301 302 300 301 301 300 301 302 300 302 303 299 298 296 295 295 294 293 293 293 292 292 291 291 291 291 291 290 290 290 289 288 288 288 287 287 287 286 285 284 283 283 282 281 281 280 279 279 278 278 277 276 276 275 275 275 275 275 277 277 278 278 279 280 282 283 284 285 285 285
309 309 309 305 301 302 304 302 302 303 303 301 298 299 300 299 301 301 299 300 301 299 299 300 299 301 302 298 297 296 295 295 294 293 293 293 292 291 291 291 291 291 290 290 290 289 289 288 288 287 287 286 286 286 285 284 283 283 282 281 280 280 279 278 277 277 276 276 275 275 275 275 274 274 275 276 276 277 278 279 281 282 282 283 284 285
307 308 308 306 304 304 302 299 298 299 300 301 300 300 300 299 300 300 299 301 302 299 298 299 298 299 300 298 297 296 295 295 294 294 293 292 292 291 291 291 291 290 290 290 289 289 288 288 287 287 286 286 285 285 284 284 283 282 282 281 280 279 279 278 277 276 275 275 275 275 274 274 274 274 275 275 276 277 278 279 279 280 281 282 283 284
306 307 308 307 305 302 297 296 297 297 297 298 298 299 298 297 299 299 298 301 303 300 298 299 298 299 299 299 298 297 296 296 295 294 293 293 292 291 291 291 291 290 290 289 289 288 288 287 287 286 286 285 285 284 284 283 283 282 282 281 280 279 278 277 276 275 275 274 274 274 274 274 274 274 275 275 275 276 277 278 278 279 280 281 281 282
307 307 308 308 308 306 301 297 297 297 296 296 296 298 298 298 298 299 298 299 300 298 297 298 298 298 299 299 298 297 296 296 294 293 293 292 292 291 291 291 290 290 289 289 289 288 288 287 286 285 285 284 284 284 283 283 282 282 281 280 279 279 278 277 276 275 274 274 274 274 274 273 274 274 274 274 274 275 276 277 277 278 279 279 280 280
307 306 307 309 312 314 313 307 302 299 296 295 296 297 298 298 298 297 297 298 298 297 297 297 297 297 298 298 297 296 296 296 294 293 292 292 291 291 291 291 290 290 289 289 288 288 287 286 285 285 284 284 283 283 283 282 282 281 280 279 279 278 277 276 275 275 274 274 274 273 273 273 273 273 273 274 274 274 275 276 276 277 277 278 279 279
305 303 303 307 310 312 313 307 302 299 296 295 297 296 296 298 298 297 297 297 297 297 297 297 297 297 297 297 297 296 296 295 294 292 291 291 291 291 291 291 290 290 289 289 288 287 286 285 285 284 284 283 283 282 282 281 281 280 279 279 278 278 277 276 275 274 274 273 273 273 273 273 273 272 273 273 273 273 274 274 275 275 276 277 278 278
304 303 303 304 305 306 306 302 300 298 296 295 296 295 295 297 299 299 298 296 296 296 296 296 297 297 297 297 296 296 295 295 293 291 291 291 291 291 291 290 290 289 289 288 288 287 286 285 284 283 283 283 282 281 281 280 280 279 278 278 278 277 276 275 274 274 273 273 273 273 272 272 272 272 272 272 272 272 273 273 273 274 275 276 277 278
302 302 303 303 302 302 302 301 299 298 296 295 296 295 295 296 298 299 298 296 296 296 296 295 296 297 297 296 296 295 295 294 292 291 291 291 291 291 291 290 289 289 288 288 287 286 285 284 283 282 282 282 281 280 280 279 278 278 278 277 277 276 276 275 274 273 273 273 272 272 272 272 272 272 271 271 271 271 271 272 272 273 273 274 276 277
300 301 301 301 301 301 300 300 300 298 297 296 295 295 295 295 295 296 296 296 296 296 295 295 295 295 296 296 295 295 295 294 292 291 291 291 291 291 291 290 289 289 288 287 286 285 284 283 282 281 281 281 280 279 279 278 277 277 276 276 276 276 275 274 274 273 273 272 272 272 271 271 271 271 271 271 271 270 271 271 271 272 272 273 275 276
300 301 300 299 300 300 299 299 299 298 297 296 295 295 295 294 294 294 295 295 296 296 295 295 295 295 295 295 295 295 295 293 292 292 291 291 291 291 290 290 289 289 288 287 285 284 283 282 281 281 280 280 279 278 278 277 276 276 275 275 275 275 274 273 273 272 272 272 271 271 271 271 270 270 270 270 270 270 270 270 271 271 272 273 274 275
299 300 300 299 301 301 299 298 298 297 296 296 296 296 295 295 295 294 294 295 295 295 295 295 296 295 295 296 296 295 293 293 292 291 291 291 291 290 290 290 289 289 287 286 284 283 282 281 280 280 279 279 278 277 277 276 275 275 274 274 274 274 273 272 272 272 272 271 271 271 270 270 270 270 270 270 270 270 270 270 270 271 272 273 274 276
298 299 299 300 302 301 298 296 296 295 296 297 297 296 295 295 295 295 295 295 295 295 295 296 296 296 296 296 295 294 292 292 292 291 291 291 291 290 290 290 289 288 286 284 283 282 281 280 280 279 278 277 277 276 276 275 274 274 273 273 273 273 272 272 271 271 271 271 271 270 270 269 269 269 269 269 269 269 269 270 270 271 272 273 274 276
298 299 298 300 301 299 295 294 294 296 299 300 299 297 296 295 295 295 295 295 295 295 295 295 295 295 296 296 295 293 292 292 291 291 291 291 290 290 290 289 288 286 284 283 282 281 280 279 278 278 277 276 276 275 274 274 273 272 272 272 272 272 271 271 271 270 270 270 270 270 270 269 268 268 268 268 268 268 269 269 270 270 271 272 273 275
298 298 298 299 300 298 295 295 298 301 300 297 295 296 296 295 295 295 295 295 295 295 295 295 295 295 295 295 294 293 292 292 292 291 291 290 290 290 289 287 286 284 283 282 281 280 279 278 277 276 276 275 274 274 273 272 272 271 271 271 271 271 271 270 270 270 270 270 270 269 269 268 268 267 267 267 268 268 268 269 269 270 270 271 272 275
298 298 298 298 298 298 296 297 301 302 298 294 293 293 293 294 294 294 295 295 294 295 295 295 294 295 295 294 293 293 292 292 292 291 290 290 290 289 287 285 284 283 282 281 280 279 278 277 276 275 274 274 273 272 272 271 270 270 270 270 270 270 270 270 270 270 270 269 269 268 268 267 267 267 267 267 267 268 268 268 269 269 270 271 272 274
298 298 298 298 298 298 297 298 299 300 298 297 296 293 293 293 293 294 295 294 294 293 293 294 294 293 294 293 293 293 292 291 292 291 289 289 288 286 285 284 283 282 280 279 279 278 277 276 275 274 273 272 272 271 271 270 269 269 269 269 269 269 269 269 269 269 269 268 268 267 267 266 266 266 266 266 267 267 268 268 269 269 270 271 272 274
297 298 298 298 298 297 296 297 298 298 299 298 297 296 295 294 294 294 294 294 294 293 293 293 293 293 293 293 292 293 292 292 292 290 288 287 287 285 283 282 281 280 279 278 277 276 275 274 274 273 272 271 270 270 269 268 268 268 268 269 269 269 269 269 268 268 268 267 266 266 266 266 266 265 266 266 267 267 268 268 269 269 270 271 272 273
297 297 297 298 298 297 297 298 298 298 299 298 295 294 295 295 296 294 293 294 295 293 293 293 293 293 293 293 292 293 293 292 292 291 288 286 285 283 282 282 280 279 278 277 276 275 274 273 272 271 270 269 269 269 268 267 267 267 268 268 268 268 268 268 268 267 266 266 265 265 265 265 265 265 265 266 266 267 268 268 269 270 270 271 272 273
296 297 296 297 298 298 297 298 298 298 298 296 293 292 293 295 295 295 296 296 295 293 293 293 293 293 293 293 293 293 293 292 292 290 287 285 283 283 282 281 279 278 277 276 275 274 273 272 271 270 269 268 268 267 267 267 267 267 267 267 267 267 267 267 266 266 265 265 264 264 265 264 264 265 265 266 267 268 268 269 269 270 271 271 272 273
295 296 296 296 296 297 297 298 297 297 297 293 291 292 293 295 294 294 296 297 294 293 294 293 293 293 292 293 293 292 292 291 290 288 286 284 283 282 281 280 278 277 275 274 274 273 271 270 269 269 268 268 267 266 266 266 266 266 267 267 267 267 266 266 265 265 264 264 264 264 264 264 264 265 265 266 268 269 270 270 271 271 272 272 273 274
295 295 295 295 295 295 297 297 296 297 296 293 291 292 293 295 295 294 295 294 293 293 293 292 292 292 292 292 292 291 291 290 289 287 285 283 282 281 279 278 277 276 274 273 272 271 270 269 268 268 267 267 266 266 265 265 265 266 266 266 266 266 265 265 264 264 263 263 263 263 263 264 264 265 266 268 270 271 272 273 273 273 273 273 274 276
295 295 294 295 295 294 295 296 296 297 297 293 291 292 293 294 295 295 294 293 293 293 292 292 292 293 293 292 291 291 290 289 287 285 284 282 281 279 278 277 275 274 273 272 271 270 269 268 267 267 266 266 265 265 265 265 265 265 265 266 265 265 264 263 263 263 262 262 262 263 263 264 265 267 268 270 271 272 273 275 275 276 276 276 277 278
296 296 295 295 295 294 295 296 296 296 295 293 292 293 293 293 294 296 296 294 293 293 293 292 293 292 292 292 291 290 289 287 285 284 282 281 279 278 276 275 274 273 272 271 270 268 267 267 266 266 265 265 265 265 265 265 265 265 265 264 264 264 263 263 262 262 261 262 262 263 264 265 267 268 269 270 270 272 274 275 277 278 279 279 280 282
298 297 298 297 295 295 296 296 296 296 294 292 293 294 293 292 294 297 297 294 293 293 293 292 292 292 291 290 289 288 287 285 284 282 281 279 278 276 275 274 273 272 271 270 268 267 267 266 265 265 264 264 264 264 264 264 264 264 263 263 263 262 262 261 261 261 261 261 262 263 264 266 268 268 269 269 269 270 272 274 277 279 281 282 284 285
298 297 299 298 296 296 296 296 295 295 294 292 293 294 294 293 294 296 296 294 293 293 292 291 291 290 289 288 288 287 285 284 282 281 279 278 276 275 274 273 272 271 270 268 267 266 266 265 264 264 263 263 264 264 264 264 263 263 262 262 262 261 261 260 260 260 261 261 262 263 265 267 268 267 267 268 268 269 271 272 274 277 280 282 284 287
297 297 297 297 297 297 298 296 295 294 294 293 293 294 295 294 294 295 295 294 293 292 291 291 289 288 286 286 287 286 284 282 281 279 277 276 275 273 272 271 270 269 268 267 266 266 265 264 263 263 263 263 263 263 263 263 262 262 261 261 261 260 260 260 260 260 260 261 262 264 265 266 266 267 267 267 268 269 270 271 272 274 277 279 282 285
298 296 296 297 297 297 298 297 295 295 295 294 293 293 294 294 294 294 293 292 291 289 288 288 287 286 284 284 284 284 282 281 279 278 276 274 273 272 271 270 269 268 266 266 265 265 264 263 263 262 262 262 262 262 262 262 261 261 260 260 260 259 259 259 259 259 260 261 262 264 265 265 265 266 266 267 267 268 269 270 271 273 274 276 279 282
298 296 296 297 297 297 297 297 296 295 295 294 294 293 293 293 293 292 291 290 289 288 286 285 284 283 283 282 281 281 281 279 277 276 274 272 271 270 270 268 267 266 265 265 265 264 263 262 262 262 261 262 262 261 261 261 260 260 260 259 259 258 258 258 259 259 260 261 263 264 264 264 264 265 265 266 267 267 268 269 270 271 272 274 275 277
297 297 297 297 297 297 297 297 296 296 296 295 294 293 293 293 293 291 290 289 289 287 285 283 281 280 280 280 279 279 280 277 274 273 272 271 270 269 268 267 265 265 264 264 263 263 262 261 261 261 261 261 261 261 260 260 259 259 259 258 258 258 258 258 259 259 260 261 262 263 264 264 264 264 264 265 266 266 267 268 268 269 271 272 273 275
298 297 297 297 298 298 297 297 297 296 296 295 294 294 293 293 293 292 290 289 288 286 283 283 281 280 278 276 275 276 277 275 272 271 271 270 268 267 266 265 264 264 264 263 262 261 261 260 260 260 260 260 260 260 259 259 259 258 258 258 257 257 258 258 259 259 260 261 262 263 263 263 263 263 264 265 265 265 266 266 266 267 268 270 271 272
Wind_Speed
2 3 3 1 2 4 4 2 2 4 3 4 4 4 6 6 6 8 4 3 3 1 3 5 7 11 8 7 10 8 7 8 7 6 5 4 4 4 4 4 4 1 2 5 9 15 19 19 21 23 24 26 27 28 29 29 28 30 32 33 33 34 35 35 35 35 35 34 33 32 32 33 34 36 36 37 36 34 35 36 34 31 32 35 37 37
3 2 2 3 2 2 2 1 2 3 4 4 5 5 6 6 5 5 3 3 4 2 2 6 9 13 10 5 11 9 8 7 7 7 6 5 5 4 5 4 2 1 3 6 9 14 18 19 24 26 25 27 27 28 30 29 29 32 32 31 33 35 36 36 36 36 36 35 35 34 34 35 37 39 37 35 36 36 36 37 34 30 32 37 38 38
2 2 1 2 1 1 0 2 3 4 5 5 5 5 6 4 3 4 1 2 3 2 4 8 8 10 8 5 11 9 7 6 6 6 5 5 5 4 4 3 2 3 4 5 7 11 17 21 24 25 26 27 27 28 29 28 30 31 30 31 32 34 35 35 36 36 37 38 39 38 37 38 39 40 39 37 38 37 36 36 35 32 32 36 40 40
4 2 2 1 1 1 2 3 4 5 5 5 5 5 5 1 3 2 2 5 7 6 7 8 6 7 4 6 9 7 6 6 6 6 5 5 5 4 3 3 3 4 4 5 6 8 15 18 21 24 27 29 29 29 29 29 31 30 30 31 32 35 36 35 36 36 39 41 42 41 40 40 40 40 40 39 38 36 34 34 34 33 33 36 41 42
7 3 1 1 2 1 3 4 4 3 3 4 4 3 3 1 1 3 4 7 8 7 6 5 6 6 5 9 7 6 7 6 7 7 6 5 5 4 3 4 4 4 5 5 5 7 11 14 18 23 25 28 28 28 30 32 32 32 32 32 34 37 37 36 37 40 41 42 42 40 39 38 36 36 36 34 34 34 33 33 33 33 33 34 39 42
6 3 1 1 1 1 2 4 3 2 2 4 1 1 1 0 3 5 6 6 5 4 2 2 5 5 6 10 7 6 6 7 7 8 7 6 5 3 3 5 5 5 4 4 5 6 9 13 20 23 23 25 26 27 30 31 32 34 34 35 38 38 37 37 39 42 42 40 39 38 36 34 32 32 32 30 31 35 35 34 34 34 33 32 34 39
3 2 1 0 1 1 3 5 2 2 0 3 2 1 1 2 5 6 6 4 2 5 3 2 3 5 2 7 8 8 7 8 7 6 7 6 4 4 4 4 4 4 3 4 5 6 9 15 20 21 23 25 27 30 31 30 33 35 34 37 40 40 38 37 39 42 42 39 38 37 36 35 34 33 34 35 34 36 37 35 35 35 34 32 30 34
3 3 2 2 2 2 4 4 1 2 1 2 4 2 1 3 6 7 6 4 4 6 5 4 5 6 6 5 10 12 9 8 8 6 6 5 4 5 4 4 3 3 4 4 5 6 9 15 18 20 23 25 28 31 31 33 36 35 35 39 42 41 39 39 41 42 41 37 35 37 38 38 38 37 38 39 37 37 38 37 35 34 33 32 31 32
3 4 4 3 3 3 3 3 2 2 1 2 2 3 3 5 8 7 6 6 5 5 5 5 5 5 6 2 7 10 10 9 9 8 7 5 5 4 4 3 3 4 4 4 5 7 11 16 20 22 23 25 27 29 33 36 37 35 37 40 43 42 40 41 43 41 38 37 39 41 42 43 43 42 41 40 38 37 37 37 37 35 32 32 32 32
1 2 2 3 3 4 2 3 3 2 2 1 2 4 5 6 8 7 6 5 4 5 7 6 6 5 5 2 6 7 7 9 9 7 6 6 5 4 3 2 3 3 4 5 5 9 14 17 21 24 24 26 27 30 35 37 37 37 38 39 43 43 40 40 40 39 41 44 44 43 43 43 43 44 44 42 40 37 35 37 38 36 32 30 30 30
1 2 2 2 3 2 3 3 3 3 2 2 4 4 5 6 7 5 6 4 3 5 5 5 4 5 4 3 6 5 4 7 8 7 6 5 4 3 2 1 3 4 4 5 7 10 15 19 21 22 23 25 27 30 34 35 37 37 36 38 42 41 39 41 41 43 45 43 39 39 41 42 41 42 44 43 40 36 33 35 37 36 32 29 29 29
2 2 1 1 1 3 4 0 3 4 1 2 1 4 4 5 4 3 1 1 1 5 2 4 5 2 5 3 3 4 4 8 8 7 7 5 3 2 2 2 4 5 5 6 7 9 13 16 19 21 22 25 27 29 32 34 36 36 35 36 37 38 41 44 44 45 45 39 36 39 40 39 38 39 41 42 40 36 33 33 36 37 33 30 28 26
3 4 2 2 2 2 4 1 1 1 1 2 2 3 3 4 3 2 1 1 3 5 3 5 6 2 7 6 4 8 7 8 8 7 7 5 3 3 4 5 5 5 6 7 7 7 9 11 16 20 23 25 26 29 31 33 35 36 36 34 34 38 42 42 42 44 45 42 39 39 36 35 36 39 42 42 39 36 33 32 34 35 33 29 26 23
3 2 2 3 2 2 4 2 1 1 1 4 3 1 3 1 3 4 3 2 4 4 4 4 3 4 6 6 4 10 9 8 9 7 7 6 5 4 3 3 4 5 6 6 6 7 8 11 16 20 22 25 26 28 30 31 34 37 36 36 37 39 41 42 42 42 43 42 39 37 35 37 39 41 42 40 37 35 34 34 35 35 32 28 26 24
3 4 1 3 1 3 4 3 3 2 1 4 3 4 3 2 3 5 2 2 4 5 5 1 2 4 4 2 4 11 9 8 8 7 7 6 5 3 2 3 5 5 5 5 6 7 9 13 18 21 23 25 25 28 29 30 33 34 35 38 39 39 41 42 42 41 40 39 39 38 38 39 38 37 38 37 35 34 34 35 37 39 37 32 29 26
4 5 2 1 2 2 1 0 3 2 0 2 2 3 1 3 4 4 1 3 2 6 6 2 2 5 2 2 6 10 8 8 8 6 7 4 3 4 4 4 5 5 5 5 6 7 10 15 19 20 22 24 25 28 28 29 33 33 34 38 40 40 40 39 39 41 41 41 41 40 39 39 36 37 39 39 38 38 37 38 37 38 41 37 31 28
3 4 1 1 1 2 1 2 1 0 1 0 1 1 3 2 2 1 3 0 2 5 6 2 3 4 2 2 5 8 8 8 7 6 6 4 4 5 3 2 3 4 5 5 6 7 11 15 18 21 22 23 26 28 28 30 33 33 33 35 37 40 39 37 38 40 40 40 40 38 36 36 36 38 40 39 40 41 42 44 42 40 42 38 33 29
1 3 2 1 1 0 1 2 2 1 2 2 2 2 1 1 2 1 2 2 1 6 6 4 5 6 3 3 4 8 7 6 6 6 5 4 4 2 0 2 4 5 5 5 7 8 11 14 18 21 22 24 26 27 27 29 31 31 32 32 33 36 36 37 40 40 39 38 38 37 36 36 37 38 38 37 39 39 39 42 44 42 43 42 36 30
1 2 3 0 1 1 1 2 1 1 2 2 2 1 2 1 1 2 1 1 3 7 6 4 7 6 5 4 6 8 7 5 4 4 4 3 3 1 2 4 5 5 5 5 7 8 9 13 18 20 22 25 26 26 26 27 28 31 33 31 32 35 35 36 38 38 39 37 36 36 36 37 37 37 36 35 38 39 37 38 39 40 41 42 39 33
2 2 3 1 2 0 1 1 2 2 1 2 1 2 1 2 3 3 2 2 4 6 7 8 8 4 4 4 8 8 6 6 3 3 3 2 2 2 3 4 5 5 5 6 8 8 9 14 19 20 23 26 27 27 26 26 28 32 33 31 34 38 38 37 37 37 38 37 35 36 36 35 35 37 36 35 35 37 38 38 37 36 36 37 39 38
2 3 4 1 2 1 2 3 5 4 4 3 2 3 2 2 2 2 2 2 4 6 5 8 9 4 2 1 6 7 6 7 5 2 2 2 3 3 3 4 5 5 6 7 8 8 10 15 19 21 25 28 28 28 27 27 30 33 32 32 35 38 39 39 39 39 39 37 34 34 35 34 34 37 37 35 34 35 36 37 36 34 34 35 37 37
2 3 4 2 2 3 3 2 2 3 4 4 5 6 6 5 4 2 5 3 3 5 5 6 11 6 3 1 4 6 6 6 5 3 3 3 4 3 3 4 5 5 6 8 9 9 10 14 18 22 28 29 28 29 29 29 31 33 33 34 35 36 37 37 38 39 40 38 35 35 35 35 34 36 36 34 35 35 34 35 34 34 34 34 34 33
1 1 2 4 3 3 2 1 1 1 2 3 4 4 5 5 5 5 7 4 2 4 4 5 10 6 2 4 5 6 6 5 4 4 4 4 4 2 3 4 5 5 7 9 10 9 11 14 19 23 27 28 28 29 29 29 31 33 33 34 36 38 38 36 36 38 39 39 37 36 35 35 34 34 35 33 33 34 33 33 33 34 33 33 33 32
1 2 1 4 4 2 2 2 1 0 0 2 5 4 4 5 6 5 6 2 1 5 5 3 8 7 1 3 5 6 6 6 5 5 6 4 2 2 3 4 5 6 9 10 10 10 12 16 19 22 24 25 27 28 29 31 32 33 34 36 38 39 38 36 36 38 39 38 37 35 34 35 33 33 34 32 31 32 33 33 34 33 32 31 31 33
2 2 2 2 5 4 3 2 2 2 2 3 4 4 5 5 3 2 2 1 3 10 9 6 9 7 2 3 5 7 7 5 4 6 6 4 2 2 3 4 5 7 9 10 11 11 11 13 16 20 23 24 26 28 30 31 33 34 36 37 37 37 38 39 37 38 38 37 37 37 35 34 34 33 33 33 32 32 33 33 33 33 33 32 32 32
3 2 4 3 7 9 6 4 3 3 3 3 3 6 7 8 8 5 2 3 8 12 10 9 10 8 4 6 6 5 5 3 2 5 5 4 2 2 4 4 5 7 9 11 12 11 11 13 15 20 24 25 26 28 29 31 33 35 38 38 37 36 38 39 38 37 38 37 38 38 36 35 35 33 33 33 32 32 32 33 33 34 35 34 33 33
2 1 6 9 11 12 9 5 2 3 4 4 4 9 10 10 13 9 4 7 9 7 9 11 10 11 11 8 6 5 4 5 2 4 4 3 2 3 3 4 6 8 9 10 10 11 13 14 15 20 24 25 27 28 29 30 32 34 37 39 39 39 38 38 38 37 38 39 39 38 37 36 36 34 33 32 32 32 32 33 34 35 36 36 35 35
3 3 9 13 17 17 11 6 3 4 6 7 6 8 11 12 12 12 12 13 6 3 12 13 9 12 14 9 7 6 4 4 2 4 3 1 2 3 3 5 8 9 9 9 10 12 15 16 15 18 23 25 27 29 30 32 33 34 36 37 38 39 39 38 38 39 40 40 39 38 39 37 36 35 34 33 33 33 33 33 34 35 36 36 37 38
3 6 8 10 16 17 13 10 7 6 7 9 8 9 11 13 14 16 18 16 9 9 16 14 10 15 13 8 8 7 3 2 2 4 1 1 2 3 4 7 9 9 10 10 11 12 14 15 15 17 22 25 27 29 32 33 35 36 36 37 38 38 38 39 39 40 42 42 40 39 40 39 36 35 35 34 34 33 33 33 33 34 35 37 39 41
2 4 5 8 13 15 12 11 10 9 9 11 10 11 12 15 17 17 18 16 15 18 20 17 18 20 14 9 11 9 3 2 4 4 1 2 4 5 6 7 8 9 10 11 12 12 13 14 16 18 22 25 26 29 31 33 35 37 37 38 38 36 37 40 41 41 42 41 41 40 39 40 39 36 35 35 34 34 34 33 33 33 34 36 39 41
3 2 2 4 8 11 10 9 10 10 11 14 14 13 14 16 18 18 17 15 14 19 22 19 20 20 13 9 9 7 2 4 4 3 2 2 3 4 6 7 8 9 10 11 12 12 13 15 16 17 20 23 27 29 30 32 36 38 38 38 38 37 38 40 41 41 41 40 39 39 39 39 39 37 36 35 35 34 33 33 33 33 33 33 35 39
5 2 2 3 5 7 5 7 8 7 9 16 19 18 17 17 18 17 15 14 15 18 20 17 15 15 10 6 5 4 4 4 4 3 1 1 1 3 6 7 8 8 10 12 12 12 14 15 16 17 20 25 29 31 31 34 37 38 38 38 39 40 40 41 40 40 40 39 38 37 37 38 38 36 34 33 33 33 33 33 32 32 32 32 32 35
5 4 1 3 4 3 2 3 2 2 6 13 15 16 19 21 20 17 14 16 18 17 14 12 12 12 7 4 5 5 3 3 3 3 2 0 2 3 4 5 6 8 11 12 11 11 13 15 17 20 23 26 30 31 33 34 35 36 38 39 41 41 40 41 39 37 39 40 38 36 35 37 38 36 34 33 33 34 34 33 31 30 30 31 31 32
7 6 3 4 3 1 2 4 3 2 9 9 4 9 17 21 21 19 18 19 18 15 12 11 11 10 6 6 7 5 3 4 4 3 3 0 3 3 3 3 5 8 11 11 11 11 11 15 20 24 26 28 31 32 34 34 34 36 37 38 41 41 39 39 38 38 40 39 37 38 38 37 37 37 36 35 35 34 33 32 31 30 31 31 31 31
9 7 4 3 2 1 2 3 1 7 8 4 1 3 9 13 16 17 17 17 15 13 13 14 13 10 8 7 5 4 4 5 4 1 1 0 1 2 2 4 6 8 9 10 11 11 12 17 23 25 27 30 32 33 33 33 35 37 38 38 41 41 39 38 38 38 38 37 36 38 39 38 39 39 37 35 34 33 33 33 32 31 31 30 30 30
9 7 5 3 2 1 2 4 6 6 7 6 5 3 1 3 7 10 12 13 12 12 13 14 13 10 8 5 4 6 5 5 4 3 1 4 5 5 1 5 6 6 7 9 10 12 16 20 23 26 29 31 33 33 33 34 34 37 39 39 39 38 35 35 35 35 35 36 36 36 37 39 39 38 38 36 34 32 32 32 32 30 29 29 29 29
8 7 4 3 3 3 3 7 7 9 14 13 9 7 7 6 7 6 9 10 9 10 11 11 10 8 5 4 5 6 6 5 4 4 3 7 6 4 3 5 6 7 8 10 12 15 19 21 23 26 29 32 32 32 32 34 35 36 37 36 35 34 34 33 32 33 33 35 35 35 37 38 37 38 39 37 34 33 31 31 30 29 27 26 27 28
7 7 6 4 4 3 2 5 5 7 11 8 2 5 10 9 7 4 5 7 7 10 11 10 10 8 5 6 6 6 6 4 2 1 3 5 5 3 2 4 6 8 10 12 15 17 19 21 23 25 28 30 31 31 31 34 36 35 34 33 33 33 34 32 32 33 34 35 36 37 38 38 38 39 38 36 35 34 33 31 30 27 26 25 25 27
7 6 4 4 4 3 4 5 6 9 10 2 3 3 6 8 8 6 4 7 7 12 12 9 8 7 6 6 6 6 5 1 3 4 5 5 4 2 2 4 6 9 12 13 14 16 18 21 23 26 29 29 30 31 32 34 35 32 31 31 32 32 31 32 34 35 37 38 39 37 37 37 38 38 39 37 36 35 33 32 30 27 25 25 25 26
7 5 4 6 7 7 7 7 6 9 7 4 7 5 6 8 9 6 3 7 4 8 9 9 8 7 7 7 6 6 5 5 5 4 5 5 3 1 2 4 5 8 11 12 14 16 18 19 20 23 27 29 31 33 34 34 33 31 30 31 31 30 30 34 36 37 38 39 38 37 37 37 38 39 39 38 39 40 38 34 30 27 24 23 24 26
4 4 5 8 9 9 10 8 6 8 5 7 9 7 8 8 6 3 6 4 3 5 7 9 9 8 8 7 6 5 6 5 4 4 5 5 2 1 3 4 7 9 11 13 14 16 18 19 19 20 24 27 30 33 34 33 32 31 31 29 28 29 33 36 37 37 38 38 38 40 41 42 43 43 41 38 39 42 40 35 31 30 26 23 24 25
5 4 5 7 7 7 8 7 7 10 6 12 12 9 9 6 2 6 5 4 7 8 7 9 9 8 8 8 6 6 6 4 6 5 4 4 1 3 3 4 7 9 12 14 15 17 19 21 21 22 25 29 30 32 34 33 31 31 30 27 28 32 37 38 37 38 39 39 40 43 45 47 49 45 39 36 36 35 35 33 32 31 28 25 24 25
8 6 5 7 6 4 5 6 6 9 7 16 15 7 6 7 5 3 3 5 8 9 8 8 8 7 8 7 6 6 6 5 5 4 4 4 3 2 3 4 6 9 12 14 16 18 20 22 22 23 26 30 31 32 34 33 32 31 30 30 33 35 36 37 39 40 41 42 43 48 53 54 49 39 31 32 34 31 29 29 27 26 25 23 23 24
8 8 5 6 7 6 7 10 7 3 7 16 14 8 9 11 6 5 6 5 5 7 7 6 7 7 8 8 7 6 6 5 4 5 5 4 3 1 3 4 6 9 12 14 17 19 20 21 23 25 27 29 30 32 32 31 31 32 33 34 37 37 36 38 40 42 43 43 44 52 56 49 39 32 29 31 32 29 27 26 24 23 21 21 22 22
11 11 5 4 9 9 7 8 5 4 8 13 11 7 10 12 8 6 8 6 5 6 6 6 7 8 8 8 7 6 5 5 5 5 5 4 2 1 2 4 7 9 12 14 17 19 19 21 24 27 29 30 30 30 29 28 29 32 34 37 38 38 38 40 41 43 44 42 45 53 51 40 32 31 31 30 28 28 28 27 24 22 20 19 20 19
8 8 2 1 6 8 7 5 4 6 8 13 11 6 7 9 8 6 7 6 6 7 6 7 8 9 8 9 8 6 6 6 6 5 5 3 1 1 2 4 7 9 12 15 17 19 20 22 23 24 28 31 31 30 29 28 28 29 34 37 38 37 39 41 42 42 40 41 47 49 41 33 32 32 31 30 28 26 26 26 26 24 21 20 20 18
4 7 5 4 6 6 6 5 9 9 10 12 11 7 4 5 6 6 7 6 7 7 7 8 9 9 9 9 8 7 6 6 6 5 4 3 1 1 2 3 6 9 11 14 16 18 19 20 21 23 26 30 32 31 31 31 30 30 33 35 36 38 40 41 39 38 39 43 46 41 33 31 33 32 31 30 27 25 26 26 25 24 23 22 21 19
6 9 8 9 10 8 4 3 7 9 9 10 10 8 5 5 6 5 4 5 7 6 5 6 8 8 8 8 7 7 6 6 6 5 4 3 2 1 0 2 5 8 12 14 15 16 17 17 19 22 24 27 31 32 33 33 33 33 34 35 36 39 41 40 38 37 40 42 38 31 29 32 32 30 29 27 27 28 28 27 25 25 24 23 23 22
8 10 8 9 10 8 6 4 5 3 4 7 9 10 9 8 8 6 6 7 8 8 6 5 5 6 8 7 7 8 7 6 6 6 5 4 2 1 0 3 6 8 11 13 13 15 16 17 18 21 23 26 29 31 33 34 34 35 35 35 37 39 39 40 41 39 38 36 31 28 30 32 30 30 29 27 28 30 28 27 27 27 26 27 28 28
10 11 8 8 9 10 11 11 8 4 4 7 10 12 11 9 8 8 8 7 8 9 9 8 5 4 5 6 7 8 7 6 6 6 5 4 3 2 1 2 6 8 10 12 13 14 15 17 18 20 22 25 28 30 33 34 34 35 35 36 38 38 37 40 42 38 34 31 28 28 31 31 30 31 30 29 30 31 30 30 30 27 25 28 31 32
11 12 11 10 10 10 9 10 10 8 7 6 8 11 10 7 10 10 10 9 9 10 11 11 9 6 5 4 6 8 7 6 6 7 5 4 4 2 0 2 5 8 10 10 12 13 15 16 18 19 22 25 27 29 32 33 34 35 36 36 37 37 36 37 37 34 32 30 28 29 31 30 30 31 31 30 30 30 30 32 34 34 33 33 33 34
Wind_Direction
66 341 287 308 40 60 44 12 312 298 293 281 281 265 258 267 263 274 291 134 116 22 287 296 288 274 261 179 163 155 138 135 139 142 137 129 119 99 92 80 48 50 11 1 20 16 359 350 352 353 353 350 345 343 339 335 334 335 334 332 330 329 326 323 320 317 314 310 307 305 303 303 302 303 302 300 299 299 299 300 302 302 305 313 318 318
74 299 292 52 54 43 43 309 275 266 260 263 256 256 258 255 264 294 324 118 106 75 268 279 270 266 270 183 155 154 150 152 150 143 136 128 123 107 102 98 55 43 8 7 22 9 354 353 357 356 353 348 344 342 338 335 334 334 332 330 328 327 325 323 321 318 314 310 308 305 303 302 301 300 298 295 295 296 296 297 297 296 302 311 317 319
357 261 148 77 72 26 159 210 234 241 249 259 248 253 257 255 301 320 360 78 19 357 272 270 264 269 276 168 153 160 153 142 130 125 123 121 116 100 95 102 48 21 4 5 13 358 353 357 358 356 351 346 342 338 335 333 332 331 328 326 325 324 323 321 320 317 313 310 307 303 301 300 298 296 294 292 292 293 292 293 292 292 301 308 314 318
297 256 137 127 91 43 270 223 230 243 244 245 248 257 261 324 32 293 307 352 325 297 271 276 272 271 270 146 150 151 130 121 118 117 119 118 111 114 124 103 64 22 3 1 353 345 351 355 357 357 351 344 340 336 334 332 330 327 323 323 327 327 323 320 319 316 313 311 307 303 299 297 294 293 293 292 290 289 288 289 289 290 297 306 312 316
265 276 22 169 135 86 289 272 254 254 262 263 273 275 259 14 23 264 295 317 304 284 270 291 288 257 178 157 161 133 126 137 142 143 140 135 132 147 144 90 64 33 16 349 330 334 341 349 357 357 350 341 337 335 332 329 326 323 322 324 328 327 323 321 320 318 314 310 308 305 301 298 295 293 292 290 289 289 288 287 286 288 293 302 308 312
262 267 338 219 209 200 261 272 255 187 258 279 278 108 131 286 293 283 292 306 308 282 253 28 316 277 160 164 168 140 155 164 160 161 150 143 148 138 96 68 46 23 3 313 310 321 328 350 358 352 345 339 335 331 327 324 325 325 324 325 326 323 319 319 319 317 313 309 307 306 303 301 298 294 291 288 289 289 287 285 285 287 290 296 302 307
237 180 120 181 241 277 268 265 260 113 99 274 217 146 35 277 269 269 277 298 278 256 263 60 296 277 200 180 174 164 175 172 166 161 142 149 149 106 83 70 45 1 318 297 303 309 337 360 357 344 340 339 333 327 325 326 327 325 324 325 323 318 314 313 314 314 310 304 302 302 300 298 296 293 290 288 288 287 286 284 283 285 287 291 295 302
180 141 140 211 210 252 265 257 256 90 82 243 207 194 282 261 258 259 259 249 238 265 275 225 227 258 267 223 174 166 170 173 174 160 147 153 124 94 85 73 38 325 298 299 300 317 358 3 351 339 337 335 329 326 327 329 327 326 326 325 321 317 313 312 313 312 308 305 306 307 305 302 297 293 290 289 289 287 287 285 282 283 284 287 290 296
148 157 191 204 203 227 231 202 182 116 132 212 203 224 247 247 250 251 249 245 251 278 273 225 208 253 268 213 147 160 170 182 179 162 156 141 107 98 88 60 354 309 300 310 319 348 5 357 344 336 332 331 331 331 333 331 328 327 327 325 321 317 314 314 314 313 313 315 317 316 313 307 301 297 294 292 289 286 287 287 284 282 281 283 285 289
144 161 179 154 182 220 189 156 160 155 189 251 330 283 257 247 248 246 239 245 258 263 266 247 208 231 265 159 148 173 185 189 178 154 144 131 114 103 82 45 315 306 307 320 348 4 359 348 337 330 330 333 335 336 334 329 327 325 325 326 323 318 315 316 316 316 315 314 315 315 312 307 304 302 301 297 290 285 285 286 284 282 278 278 279 283
165 66 26 158 203 188 132 139 164 189 240 357 343 291 274 260 247 234 221 228 270 253 263 276 224 223 260 199 166 186 182 161 157 143 130 121 109 99 83 354 321 336 332 343 4 1 348 337 331 329 331 334 335 335 332 328 326 323 322 325 323 319 318 318 317 316 313 309 310 312 309 305 304 306 304 299 294 289 284 284 285 283 278 276 276 277
185 184 225 213 281 96 101 107 199 197 247 46 337 293 315 297 254 242 243 119 243 245 247 14 9 286 243 232 151 158 129 120 134 137 129 117 97 95 47 6 1 352 350 3 4 351 341 333 331 332 333 335 336 335 332 329 328 324 322 324 322 321 321 319 317 319 316 312 311 311 306 302 303 307 305 299 297 296 290 284 284 282 278 275 271 268
229 223 163 73 342 131 123 39 218 230 274 180 243 297 317 319 303 277 314 149 234 245 181 96 43 318 241 248 189 158 131 113 123 122 119 111 76 53 24 12 5 358 4 6 355 342 337 332 332 335 335 336 336 332 329 328 329 328 324 323 323 322 321 319 318 320 319 315 315 314 310 308 307 306 305 299 295 297 299 293 287 282 276 272 266 260
285 305 121 108 340 188 164 160 191 240 217 203 210 175 187 296 316 274 257 239 248 244 189 140 40 295 259 264 193 148 130 120 119 112 112 100 76 57 31 24 10 6 9 359 347 339 332 330 331 332 332 331 330 328 327 329 330 329 326 324 322 321 323 321 318 317 316 315 317 317 316 315 309 303 302 299 293 293 299 302 298 291 282 273 267 263
268 300 214 173 199 170 178 176 158 148 183 216 169 128 169 174 226 255 248 231 266 272 240 155 14 260 251 279 131 125 125 123 118 118 112 101 100 104 68 41 20 6 5 351 340 331 324 326 328 327 328 327 325 325 328 331 331 329 327 327 323 321 323 323 320 319 318 317 318 317 317 316 310 304 305 306 302 297 296 298 299 297 290 279 272 269
225 255 267 232 204 150 169 99 102 92 323 254 111 101 214 195 205 257 260 184 276 300 272 184 210 229 175 112 122 124 135 133 125 119 105 91 81 74 48 27 14 359 354 340 330 324 321 324 326 326 327 325 323 324 327 331 330 328 327 327 323 318 318 320 322 321 318 317 317 316 315 312 310 311 311 310 309 306 303 301 301 301 295 284 274 271
242 261 301 8 342 71 36 12 31 94 185 225 81 172 231 187 137 276 298 13 59 303 272 189 246 261 111 130 152 146 157 144 124 104 93 75 54 59 45 5 360 354 344 330 324 322 319 322 324 325 324 322 323 325 327 329 329 326 324 323 319 315 315 319 321 319 316 315 314 314 313 310 309 310 309 308 308 307 305 304 304 306 304 294 280 269
274 269 249 167 298 357 22 356 316 239 133 132 193 209 212 53 83 123 311 1 23 275 259 177 223 242 207 222 183 166 174 149 115 100 97 77 65 80 305 2 1 347 335 324 323 318 314 319 324 325 322 321 323 323 324 325 323 321 319 317 316 315 315 319 320 318 316 315 314 314 313 310 308 307 305 306 307 307 306 303 302 303 306 306 297 279
52 264 261 254 251 225 45 358 269 221 95 125 217 228 99 121 202 146 148 220 244 267 270 235 236 231 216 210 175 177 180 141 100 84 83 60 61 62 348 5 352 337 329 323 323 316 314 319 322 321 318 319 320 319 319 320 319 320 317 316 321 321 318 318 319 318 316 316 316 315 313 310 308 305 303 304 306 307 306 304 302 300 301 306 309 300
71 234 256 299 274 246 78 188 201 202 108 81 357 326 105 169 194 172 164 185 227 260 278 280 273 243 220 193 157 162 152 126 105 62 62 44 56 44 6 356 339 336 333 327 323 315 318 320 319 319 319 320 319 318 318 319 321 322 318 318 324 325 321 320 320 320 318 315 313 312 311 310 308 305 304 304 304 305 305 305 303 301 300 302 308 312
88 224 239 310 316 265 174 197 193 191 180 153 172 208 203 185 162 201 232 166 209 249 262 280 279 251 222 196 128 131 129 130 135 128 154 152 93 56 10 354 339 337 330 324 321 317 318 318 318 322 323 321 319 319 319 320 322 322 318 319 323 325 323 321 320 321 319 314 311 310 309 309 308 306 305 306 304 303 304 305 303 303 304 304 304 310
160 215 231 237 246 224 223 221 186 180 177 181 194 197 198 190 155 215 250 196 193 237 219 251 272 257 200 201 118 122 130 133 134 141 157 125 89 53 2 354 340 333 330 324 322 321 317 315 319 325 324 322 321 321 320 321 322 322 319 319 321 322 321 319 319 321 319 315 311 310 309 308 307 305 304 305 305 302 302 302 303 305 306 305 304 305
131 76 257 254 252 246 262 346 121 194 208 220 229 204 188 185 167 198 239 224 189 236 216 241 271 270 182 148 127 127 141 144 141 127 108 94 84 50 352 347 337 331 329 324 322 321 317 317 322 325 322 320 321 321 320 320 321 320 320 322 321 319 319 319 319 319 318 313 310 309 309 307 306 304 303 302 302 301 300 299 302 305 304 303 303 302
63 76 254 276 300 319 306 326 325 313 10 252 237 203 185 198 189 203 232 208 161 231 212 220 257 262 240 141 133 139 160 160 137 107 97 93 84 31 348 342 340 334 329 325 323 321 318 320 323 322 320 319 321 321 321 320 319 318 320 322 319 316 318 321 320 320 318 313 309 308 307 307 306 304 302 301 300 299 299 300 300 301 302 303 302 301
189 151 134 306 302 289 286 295 271 225 195 230 226 194 204 217 211 252 248 117 253 240 219 225 249 248 219 171 159 160 182 179 118 99 101 97 73 360 348 345 341 334 328 324 323 322 321 322 322 321 319 320 322 322 321 320 318 318 318 319 317 315 318 321 320 319 318 313 310 308 306 306 306 303 301 299 298 298 297 298 300 300 301 303 301 300
195 160 156 202 263 265 270 274 250 208 191 226 224 200 211 216 214 229 223 197 239 240 222 225 246 249 218 191 184 187 221 263 43 83 94 85 52 358 355 346 337 333 327 325 324 322 323 322 321 320 320 321 322 321 321 320 318 318 317 315 316 317 318 319 319 319 318 314 311 308 306 305 304 302 301 298 296 296 296 296 297 298 299 299 299 300
127 188 210 217 241 252 263 275 236 161 176 199 205 202 209 216 215 215 213 219 234 255 245 233 241 261 257 242 251 273 284 302 358 74 72 50 9 356 357 338 333 332 325 323 323 322 323 322 320 320 319 319 320 319 319 319 317 316 315 314 316 319 319 318 317 317 315 314 311 307 305 305 303 302 299 296 295 295 295 295 294 295 296 296 295 296
117 243 225 224 242 250 261 272 205 172 205 215 205 200 207 214 213 209 218 228 231 271 259 245 233 252 258 258 265 267 283 309 18 82 69 6 330 341 350 338 333 328 321 319 321 322 323 320 318 319 319 319 319 320 320 320 318 317 314 314 317 319 319 317 315 315 314 312 309 307 305 304 302 300 297 294 293 293 293 293 292 292 293 293 291 291
137 249 225 220 247 253 258 261 236 214 229 229 216 208 215 220 218 218 227 234 230 238 254 260 251 250 256 262 264 267 294 325 100 116 134 310 348 353 350 338 329 322 317 316 320 322 320 317 317 318 318 320 321 322 323 321 319 319 317 317 319 319 318 315 311 309 311 309 306 305 306 306 302 297 296 293 291 291 291 290 289 289 289 288 287 286
164 249 224 221 253 257 252 256 256 255 258 252 238 225 228 234 231 231 235 234 232 242 254 263 264 263 264 262 270 283 293 159 137 129 97 13 5 354 343 330 320 315 314 316 320 322 317 314 316 316 319 322 323 323 323 321 320 320 318 319 320 318 318 317 311 306 306 308 308 305 305 307 304 298 295 294 291 289 289 287 285 285 285 284 282 281
213 224 167 197 257 261 244 243 257 262 264 264 257 241 239 246 245 242 240 234 234 245 252 256 263 267 264 258 270 275 208 149 130 109 45 28 12 350 333 319 313 309 312 318 320 319 315 314 316 318 321 323 323 323 323 321 320 319 318 319 320 319 317 315 310 304 302 304 307 307 306 306 304 299 296 295 292 289 288 286 284 283 281 281 279 277
208 222 97 141 248 258 221 215 244 269 280 272 263 247 235 240 242 238 234 228 227 239 248 251 255 260 262 260 255 228 171 138 124 113 71 22 8 343 318 308 309 311 314 318 319 317 316 317 319 321 323 324 323 323 324 322 320 319 318 319 318 317 314 311 308 304 301 301 303 306 308 307 303 300 299 298 294 291 289 287 284 281 279 278 276 274
184 200 157 161 228 272 114 156 207 346 302 272 255 231 222 229 237 239 238 233 228 231 241 244 244 253 262 253 234 219 165 129 121 121 131 225 305 309 303 299 306 312 314 313 315 316 316 317 318 320 322 324 322 321 321 321 318 315 316 316 316 315 313 311 308 305 304 303 301 302 306 306 304 300 299 299 297 294 291 287 283 281 280 280 279 275
189 196 191 180 201 217 122 113 83 279 264 263 233 195 207 218 226 231 236 235 230 228 235 243 248 249 245 231 227 219 164 132 122 125 132 192 299 306 324 320 309 311 312 311 314 317 316 316 317 318 320 321 319 318 318 318 316 314 314 315 315 313 310 307 306 305 305 305 303 303 305 305 304 300 297 297 296 294 291 287 283 281 280 280 279 275
184 193 193 187 197 187 129 104 205 248 252 270 359 199 207 212 218 228 239 240 232 229 235 242 244 235 229 227 200 156 124 104 86 60 81 349 330 65 27 321 307 309 309 311 315 316 319 320 318 319 321 320 318 318 318 318 319 319 316 315 315 313 310 308 307 306 305 305 305 306 306 305 303 299 296 296 294 292 290 286 281 279 279 277 275 273
175 186 186 173 184 178 143 185 217 267 305 287 250 230 154 200 209 227 250 246 227 225 231 235 239 233 224 213 132 107 97 79 40 343 66 104 103 98 87 290 299 304 303 309 315 316 319 320 318 318 319 318 318 319 319 320 321 320 317 313 311 309 307 305 304 303 305 307 308 308 307 307 304 299 296 295 293 290 288 285 280 277 275 274 273 273
171 178 178 181 199 176 194 222 238 311 310 279 238 192 184 198 187 201 250 245 208 212 226 226 233 234 204 150 106 95 87 63 11 343 90 108 114 132 203 266 289 297 303 313 315 314 315 314 316 317 317 316 317 318 320 321 321 319 314 310 307 306 305 302 303 306 308 309 307 305 304 303 302 299 296 295 293 290 287 284 281 278 275 272 272 272
183 189 181 194 209 152 166 243 257 283 278 266 221 178 189 188 156 148 267 258 193 199 218 217 222 222 172 127 118 101 83 56 335 274 151 142 144 151 235 280 293 303 313 318 316 314 314 315 317 317 316 315 316 318 321 321 320 317 311 308 308 308 308 307 308 309 309 308 308 308 307 304 301 299 297 293 291 288 285 282 280 278 275 272 270 271
194 210 198 213 230 172 178 229 237 245 250 224 95 131 147 138 118 94 319 278 207 195 203 198 198 193 154 139 139 114 98 168 241 208 173 164 142 113 294 285 296 309 313 315 316 316 317 319 319 317 316 316 316 320 323 322 320 316 311 309 310 309 310 312 313 313 311 310 311 310 307 304 301 299 297 292 288 285 281 278 277 275 271 268 267 269
192 201 194 217 227 204 206 230 239 250 253 135 121 127 117 114 105 91 299 275 206 179 182 173 173 168 152 153 148 136 161 205 217 191 154 129 102 91 276 286 304 311 311 314 319 320 320 321 318 316 316 317 318 323 325 323 322 318 314 314 315 314 313 314 314 313 310 309 309 310 309 306 301 297 292 287 288 289 285 277 274 272 267 263 265 265
195 197 198 217 223 212 214 231 252 260 241 143 144 147 121 101 94 159 236 239 148 156 161 155 162 163 158 165 162 174 203 194 158 144 123 97 80 248 267 299 308 312 315 319 323 326 325 322 318 313 312 315 320 324 327 326 324 319 316 317 318 317 316 314 313 312 310 308 309 310 310 307 304 300 294 289 290 292 289 282 276 272 265 260 262 262
186 195 213 217 212 211 218 228 266 272 221 150 153 154 130 124 201 223 209 154 145 161 154 151 164 165 166 179 178 186 199 157 117 113 110 111 165 251 278 309 312 313 320 324 328 332 329 322 320 318 317 320 324 327 329 327 323 321 320 318 317 318 319 318 316 313 312 310 309 311 314 313 310 305 298 294 294 290 285 284 281 273 263 254 254 258
173 169 211 211 181 181 217 214 247 267 199 146 143 151 167 190 208 174 142 153 164 165 158 163 172 165 166 180 182 181 178 152 133 137 141 150 177 256 292 315 321 319 325 330 331 333 330 323 320 320 322 325 328 330 332 330 325 324 324 321 320 321 320 318 318 316 314 312 312 319 323 321 315 310 305 306 306 297 288 285 281 272 262 251 251 256
181 176 203 205 172 160 198 206 213 237 160 150 153 172 199 206 191 131 146 179 177 167 165 167 174 170 167 171 176 177 172 171 176 169 160 168 182 247 298 324 332 326 328 330 329 330 329 322 320 321 322 326 330 332 334 332 327 326 325 324 324 324 322 319 319 320 317 313 314 323 326 323 318 317 317 317 316 311 306 298 288 280 273 262 258 256
201 191 187 189 185 188 210 219 199 124 146 171 181 185 194 206 203 159 159 172 177 180 174 162 168 169 160 159 166 173 179 187 186 168 156 165 176 276 318 327 331 328 328 327 325 328 328 323 322 323 323 327 332 334 335 335 332 328 326 327 327 327 325 323 322 321 318 315 318 325 326 322 321 324 323 321 320 318 317 314 307 299 291 282 276 267
209 190 164 143 195 219 246 236 157 130 164 187 196 190 185 202 203 174 167 176 175 174 166 158 164 163 154 155 162 174 188 186 173 158 145 143 166 333 342 328 325 326 326 324 324 326 327 325 324 324 324 327 333 336 336 337 336 331 328 328 328 327 327 326 324 322 320 319 321 325 326 324 326 328 327 325 322 318 317 318 315 310 306 302 296 286
203 180 189 197 181 197 235 208 165 169 186 189 196 205 194 197 200 186 183 180 164 162 164 156 154 152 152 159 166 175 181 169 159 158 145 135 167 310 353 328 322 325 323 320 321 323 327 328 328 328 327 328 332 336 336 336 337 335 332 331 330 330 329 327 325 323 323 324 325 326 328 329 328 327 327 327 325 323 322 320 316 314 313 311 309 302
174 164 187 213 201 195 232 203 163 181 194 184 191 210 211 202 198 180 159 144 133 132 136 134 137 143 152 165 173 170 165 160 159 162 152 146 174 220 352 319 319 320 316 315 317 323 328 329 327 328 327 326 330 334 335 336 337 338 337 336 335 334 332 329 326 325 325 326 325 325 329 330 329 328 328 327 327 327 326 325 323 321 318 316 315 314
145 161 177 196 203 219 240 196 139 150 207 190 192 206 212 206 191 158 127 124 126 125 125 124 130 146 157 168 171 161 160 166 160 152 154 165 180 175 181 321 317 310 308 313 318 324 329 329 328 329 328 327 330 334 335 336 338 340 340 340 339 338 335 331 330 328 327 326 324 326 332 333 331 330 328 327 328 329 327 327 327 324 321 321 321 322
154 181 177 165 193 225 226 199 173 178 218 201 196 207 211 196 169 150 141 147 151 153 150 139 124 125 142 156 158 156 161 166 154 149 159 165 162 159 176 317 311 303 305 314 320 324 328 330 332 332 330 330 333 335 335 336 339 341 342 342 341 341 337 334 332 330 329 328 328 330 334 334 332 332 331 331 333 332 330 329 330 328 327 328 328 331
178 184 173 175 205 224 215 195 192 209 222 205 192 203 205 174 152 157 168 175 175 170 161 154 150 152 154 151 149 150 154 157 155 154 155 155 152 151 163 308 302 301 307 316 324 327 329 334 338 337 333 333 335 336 336 337 340 343 344 344 344 343 340 337 335 332 329 328 329 333 336 334 332 332 333 334 335 336 334 334 334 335 338 340 341 342